K6NC Weather Reports


Display with metric or nautical units.
time (UTC)temp
F
wind
direction
speed
MPH
gust
MPH
rain 1hr
in
rain 24hr
in
rain mn
in
humidity
%
barometer
mb
20260503052514 55 257 2.0 7.0 0.00 0.00 0.00 83 1010.9
20260503052012 55 244 3.0 8.0 0.00 0.00 0.00 82 1010.9
20260503051530 55 253 4.0 8.0 0.00 0.00 0.00 81 1010.9
20260503051010 55 242 5.0 10.0 0.00 0.00 0.00 81 1011.0
20260503050512 55 253 4.0 10.0 0.00 0.00 0.00 81 1010.9
20260503050033 56 249 3.0 9.0 0.00 0.00 0.00 80 1010.9
20260503045514 56 271 5.0 11.0 0.00 0.00 0.00 80 1010.9
20260503045016 56 279 6.0 11.0 0.00 0.00 0.00 80 1010.9
20260503044532 56 269 7.0 12.0 0.00 0.00 0.00 80 1010.8
20260503044011 56 248 6.0 12.0 0.00 0.00 0.00 79 1010.8
20260503043510 57 254 6.0 12.0 0.00 0.00 0.00 79 1010.7
20260503043040 57 255 6.0 11.0 0.00 0.00 0.00 79 1010.6
20260503042524 57 262 6.0 11.0 0.00 0.00 0.00 80 1010.6
20260503042011 57 263 4.0 6.0 0.00 0.00 0.00 80 1010.6
20260503041528 57 238 2.0 7.0 0.00 0.00 0.00 81 1010.5
20260503041016 57 251 4.0 7.0 0.00 0.00 0.00 80 1010.4
20260503040511 57 272 3.0 9.0 0.00 0.00 0.00 79 1010.4
20260503040028 58 251 4.0 9.0 0.00 0.00 0.00 79 1010.4
20260503035514 58 252 4.0 9.0 0.00 0.00 0.00 78 1010.3
20260503035012 58 234 4.0 10.0 0.00 0.00 0.00 78 1010.2
20260503034530 58 260 6.0 10.0 0.00 0.00 0.00 77 1010.1
20260503034014 59 259 6.0 9.0 0.00 0.00 0.00 77 1010.0
20260503033516 59 253 6.0 9.0 0.00 0.00 0.00 78 1010.0
20260503033034 59 261 4.0 9.0 0.00 0.00 0.00 78 1010.0
20260503032512 59 253 5.0 8.0 0.00 0.00 0.00 78 1009.9
20260503032013 59 242 5.0 8.0 0.00 0.00 0.00 77 1009.8
20260503031528 60 263 4.0 8.0 0.00 0.00 0.00 77 1009.8
20260503031012 60 236 5.0 8.0 0.00 0.00 0.00 76 1009.8
20260503030513 60 240 4.0 8.0 0.00 0.00 0.00 76 1009.8
20260503030029 60 244 5.0 8.0 0.00 0.00 0.00 75 1009.8
20260503025510 60 247 4.0 8.0 0.00 0.00 0.00 74 1009.8
20260503025013 61 254 4.0 8.0 0.00 0.00 0.00 74 1009.7
20260503024529 61 250 4.0 8.0 0.00 0.00 0.00 74 1009.7
20260503024014 61 242 4.0 9.0 0.00 0.00 0.00 73 1009.6
20260503023517 61 238 5.0 9.0 0.00 0.00 0.00 72 1009.6
20260503023028 62 256 5.0 9.0 0.00 0.00 0.00 72 1009.6
20260503022513 62 255 5.0 9.0 0.00 0.00 0.00 71 1009.6
20260503022014 62 206 6.0 11.0 0.00 0.00 0.00 71 1009.5
20260503021540 63 261 6.0 11.0 0.00 0.00 0.00 71 1009.5
20260503021011 63 234 5.0 10.0 0.00 0.00 0.00 71 1009.5
20260503020511 63 255 6.0 12.0 0.00 0.00 0.00 70 1009.5
20260503020028 64 244 8.0 12.0 0.00 0.00 0.00 69 1009.5
20260503015516 64 238 7.0 12.0 0.00 0.00 0.00 69 1009.6
20260503015013 64 266 7.0 12.0 0.00 0.00 0.00 69 1009.6
20260503014527 64 246 9.0 12.0 0.00 0.00 0.00 68 1009.6
20260503014013 64 257 5.0 11.0 0.00 0.00 0.00 68 1009.6
20260503013514 65 257 7.0 12.0 0.00 0.00 0.00 66 1009.6
20260503013029 65 247 7.0 12.0 0.00 0.00 0.00 68 1009.6
20260503012514 66 252 7.0 11.0 0.00 0.00 0.00 68 1009.6
20260503012029 66 225 7.0 11.0 0.00 0.00 0.00 68 1009.6
20260503011530 66 254 6.0 11.0 0.00 0.00 0.00 67 1009.6
20260503011014 66 263 6.0 11.0 0.00 0.00 0.00 67 1009.6
20260503010513 67 254 7.0 11.0 0.00 0.00 0.00 66 1009.6
20260503010030 67 240 7.0 10.0 0.00 0.00 0.00 64 1009.6
20260503005514 67 257 6.0 10.0 0.00 0.00 0.00 65 1009.5
20260503005017 67 271 6.0 10.0 0.00 0.00 0.00 64 1009.6
20260503004529 67 264 6.0 9.0 0.00 0.00 0.00 64 1009.5
20260503004013 68 250 7.0 9.0 0.00 0.00 0.00 64 1009.5
20260503003513 68 236 6.0 10.0 0.00 0.00 0.00 64 1009.6
20260503003042 68 234 6.0 10.0 0.00 0.00 0.00 65 1009.6
20260503002514 68 248 5.0 10.0 0.00 0.00 0.00 66 1009.6
20260503002011 68 240 6.0 10.0 0.00 0.00 0.00 66 1009.6
20260503001531 68 252 6.0 11.0 0.00 0.00 0.00 65 1009.6
20260503001013 69 226 5.0 11.0 0.00 0.00 0.00 67 1009.6
20260503000513 69 260 8.0 10.0 0.00 0.00 0.00 65 1009.7
20260503000028 69 254 6.0 11.0 0.00 0.00 0.00 66 1009.7
20260502235511 69 263 7.0 11.0 0.00 0.00 0.00 66 1009.8
20260502235014 69 260 7.0 10.0 0.00 0.00 0.00 64 1009.8
20260502234528 70 263 7.0 11.0 0.00 0.00 0.00 63 1009.9
20260502234011 70 221 7.0 11.0 0.00 0.00 0.00 63 1009.9
20260502233512 70 244 5.0 9.0 0.00 0.00 0.00 63 1009.9
20260502233027 70 215 5.0 11.0 0.00 0.00 0.00 61 1009.9
20260502232510 70 283 6.0 12.0 0.00 0.00 0.00 62 1010.0
20260502232012 70 252 8.0 12.0 0.00 0.00 0.00 59 1010.1
20260502231527 71 263 8.0 13.0 0.00 0.00 0.00 60 1010.1
20260502231011 72 232 7.0 13.0 0.00 0.00 0.00 60 1010.1
20260502230513 71 235 9.0 13.0 0.00 0.00 0.00 60 1010.2
20260502230029 71 244 7.0 10.0 0.00 0.00 0.00 60 1010.3
20260502225515 71 229 6.0 10.0 0.00 0.00 0.00 60 1010.3
20260502225012 71 228 6.0 11.0 0.00 0.00 0.00 60 1010.3
20260502224535 71 269 7.0 11.0 0.00 0.00 0.00 61 1010.5
20260502224014 71 251 5.0 10.0 0.00 0.00 0.00 61 1010.4
20260502223514 71 252 5.0 10.0 0.00 0.00 0.00 64 1010.5
20260502223028 71 240 6.0 10.0 0.00 0.00 0.00 58 1010.6
20260502222514 71 247 5.0 11.0 0.00 0.00 0.00 58 1010.6
20260502222015 72 223 5.0 11.0 0.00 0.00 0.00 59 1010.8
20260502221530 72 252 6.0 11.0 0.00 0.00 0.00 59 1010.8
20260502221011 72 250 8.0 11.0 0.00 0.00 0.00 60 1010.9
20260502220514 73 215 5.0 11.0 0.00 0.00 0.00 61 1010.9
20260502220031 72 282 5.0 11.0 0.00 0.00 0.00 63 1011.1
20260502215511 72 263 6.0 11.0 0.00 0.00 0.00 59 1011.1
20260502215012 72 271 7.0 11.0 0.00 0.00 0.00 61 1011.1
20260502214527 72 268 7.0 11.0 0.00 0.00 0.00 64 1011.3
20260502214016 71 324 2.0 9.0 0.00 0.00 0.00 66 1011.3
20260502213514 71 284 2.0 9.0 0.00 0.00 0.00 64 1011.3
20260502213028 71 265 0.0 9.0 0.00 0.00 0.00 61 1011.5
20260502212512 71 236 4.0 11.0 0.00 0.00 0.00 63 1011.5
20260502212012 71 221 6.0 11.0 0.00 0.00 0.00 62 1011.7
20260502211527 69 216 7.0 11.0 0.00 0.00 0.00 65 1011.7
20260502211012 69 265 6.0 13.0 0.00 0.00 0.00 67 1011.8
20260502210512 69 242 7.0 13.0 0.00 0.00 0.00 63 1011.8
20260502210028 71 241 7.0 12.0 0.00 0.00 0.00 64 1011.8
20260502205512 70 243 6.0 11.0 0.00 0.00 0.00 65 1011.9
20260502205017 69 265 6.0 11.0 0.00 0.00 0.00 63 1012.0
20260502204534 71 267 8.0 11.0 0.00 0.00 0.00 65 1012.1
20260502204012 71 256 8.0 10.0 0.00 0.00 0.00 66 1012.1
20260502203515 70 238 7.0 10.0 0.00 0.00 0.00 63 1012.1
20260502203036 70 245 7.0 10.0 0.00 0.00 0.00 64 1012.1
20260502202510 70 242 6.0 10.0 0.00 0.00 0.00 64 1012.1
20260502202017 69 221 5.0 10.0 0.00 0.00 0.00 65 1012.2
20260502201527 70 266 4.0 10.0 0.00 0.00 0.00 65 1012.2
20260502201013 69 265 6.0 10.0 0.00 0.00 0.00 68 1012.2
20260502200511 68 222 4.0 11.0 0.00 0.00 0.00 68 1012.2
20260502200048 67 230 6.0 11.0 0.00 0.00 0.00 67 1012.3
20260502195512 67 263 6.0 11.0 0.00 0.00 0.00 68 1012.3
20260502195014 67 237 6.0 13.0 0.00 0.00 0.00 67 1012.4
20260502194529 67 238 8.0 13.0 0.00 0.00 0.00 66 1012.4
20260502194014 66 261 6.0 11.0 0.00 0.00 0.00 69 1012.4
20260502193512 66 246 7.0 11.0 0.00 0.00 0.00 70 1012.3
20260502193030 65 245 6.0 12.0 0.00 0.00 0.00 70 1012.4
20260502192514 64 233 7.0 13.0 0.00 0.00 0.00 73 1012.4
20260502192012 64 235 8.0 13.0 0.00 0.00 0.00 72 1012.5
20260502191529 64 242 9.0 13.0 0.00 0.00 0.00 71 1012.7
20260502191012 64 264 7.0 10.0 0.00 0.00 0.00 74 1012.7
20260502190513 63 250 6.0 10.0 0.00 0.00 0.00 75 1012.8
20260502190028 62 267 6.0 11.0 0.00 0.00 0.00 76 1012.8
20260502185512 62 220 6.0 11.0 0.00 0.00 0.00 76 1012.8
20260502185011 61 262 7.0 12.0 0.00 0.00 0.00 77 1012.8
20260502184529 62 248 7.0 12.0 0.00 0.00 0.00 77 1012.8
20260502184011 61 269 7.0 11.0 0.00 0.00 0.00 76 1012.8
20260502183513 62 271 6.0 14.0 0.00 0.00 0.00 75 1012.8
20260502183035 62 240 8.0 14.0 0.00 0.00 0.00 74 1012.7
20260502182514 62 238 9.0 12.0 0.00 0.00 0.00 74 1012.7
20260502182012 63 248 7.0 12.0 0.00 0.00 0.00 74 1012.7
20260502181529 63 257 7.0 13.0 0.00 0.00 0.00 73 1012.7
20260502181011 64 289 6.0 15.0 0.00 0.00 0.00 75 1012.7
20260502180517 64 271 9.0 15.0 0.00 0.00 0.00 71 1012.6
20260502170512 61 245 10.0 14.0 0.00 0.00 0.00 74 1012.4
20260502164015 62 272 5.0 11.0 0.00 0.00 0.00 78 1012.3
20260502163513 62 228 6.0 10.0 0.00 0.00 0.00 79 1012.4
20260502163030 61 223 7.0 10.0 0.00 0.00 0.00 79 1012.4
20260502162512 61 237 5.0 8.0 0.00 0.00 0.00 81 1012.4
20260502162012 60 228 5.0 8.0 0.00 0.00 0.00 83 1012.3
20260502161528 59 253 4.0 8.0 0.00 0.00 0.00 83 1012.3
20260502161014 59 242 5.0 8.0 0.00 0.00 0.00 84 1012.3
20260502160514 58 212 4.0 8.0 0.00 0.00 0.00 84 1012.3
20260502152012 54 216 1.0 4.0 0.00 0.00 0.00 91 1012.0
20260502151530 54 191 2.0 4.0 0.00 0.00 0.00 91 1011.9
20260502151011 54 223 1.0 4.0 0.00 0.00 0.00 91 1012.0
20260502150512 54 194 1.0 3.0 0.00 0.00 0.00 91 1012.0
20260502130511 51 260 2.0 5.0 0.00 0.00 0.00 91 1011.0
20260502123518 50 0 0.0 1.0 0.00 0.00 0.00 90 1010.9
20260502123029 50 0 0.0 1.0 0.00 0.00 0.00 90 1010.8
20260502122515 50 0 0.0 1.0 0.00 0.00 0.00 89 1010.7
20260502122012 50 0 0.0 2.0 0.00 0.00 0.00 89 1010.8
20260502121530 50 0 0.0 3.0 0.00 0.00 0.00 89 1010.7
20260502121011 50 81 1.0 3.0 0.00 0.00 0.00 89 1010.9
20260502120512 50 81 2.0 3.0 0.00 0.00 0.00 89 1010.8
20260502115512 51 80 1.0 3.0 0.00 0.00 0.00 87 1010.9
20260502115014 51 89 1.0 3.0 0.00 0.00 0.00 87 1010.9
20260502114528 51 90 2.0 3.0 0.00 0.00 0.00 88 1010.9
20260502114014 52 0 0.0 0.0 0.00 0.00 0.00 88 1011.0
20260502113514 52 0 0.0 0.0 0.00 0.00 0.00 88 1011.0
20260502113029 52 0 0.0 0.0 0.00 0.00 0.00 88 1011.1
20260502112512 52 0 0.0 0.0 0.00 0.00 0.00 88 1011.1
20260502112016 52 0 0.0 1.0 0.00 0.00 0.00 88 1011.1
20260502111527 52 0 0.0 1.0 0.00 0.00 0.00 88 1011.1
20260502111011 52 0 0.0 2.0 0.00 0.00 0.00 88 1011.1
20260502110513 52 0 0.0 2.0 0.00 0.00 0.00 88 1011.1
20260502110032 52 207 0.0 3.0 0.00 0.00 0.00 87 1011.1
20260502105513 52 0 0.0 3.0 0.00 0.00 0.00 87 1011.2
20260502105012 53 197 2.0 3.0 0.00 0.00 0.00 87 1011.3
20260502104527 53 194 2.0 4.0 0.00 0.00 0.00 86 1011.2
20260502104014 53 206 2.0 5.0 0.00 0.00 0.00 86 1011.3
20260502103514 53 215 2.0 5.0 0.00 0.00 0.00 85 1011.3
20260502103056 53 234 3.0 5.0 0.00 0.00 0.00 85 1011.2
20260502102514 54 211 2.0 4.0 0.00 0.00 0.00 84 1011.2
20260502102013 54 198 3.0 4.0 0.00 0.00 0.00 83 1011.2
20260502101545 54 201 2.0 5.0 0.00 0.00 0.00 83 1011.1
20260502101011 54 225 2.0 5.0 0.00 0.00 0.00 84 1011.1
20260502100512 54 215 3.0 5.0 0.00 0.00 0.00 84 1011.2
20260502091530 54 254 2.0 4.0 0.00 0.00 0.00 84 1011.4
20260502091011 54 259 2.0 4.0 0.00 0.00 0.00 85 1011.4
20260502090511 54 219 2.0 4.0 0.00 0.00 0.00 84 1011.5
20260502071527 57 325 2.0 4.0 0.00 0.00 0.00 84 1011.8
20260502071011 58 0 0.0 0.0 0.00 0.00 0.00 81 1011.8
20260502070513 58 0 0.0 2.0 0.00 0.00 0.00 81 1011.8
20260502070029 58 0 0.0 2.0 0.00 0.00 0.00 81 1011.8
20260502065512 58 0 0.0 4.0 0.00 0.00 0.00 80 1011.8
20260502065019 59 0 0.0 5.0 0.00 0.00 0.00 80 1011.8
20260502064536 59 0 1.0 5.0 0.00 0.00 0.00 79 1011.6
20260502064015 59 191 2.0 7.0 0.00 0.00 0.00 80 1011.6
20260502063512 59 193 2.0 7.0 0.00 0.00 0.00 79 1011.6
20260502063029 59 202 3.0 7.0 0.00 0.00 0.00 79 1011.6
20260502062513 59 216 3.0 9.0 0.00 0.00 0.00 79 1011.5
20260502062014 59 225 3.0 9.0 0.00 0.00 0.00 79 1011.6
20260502061529 59 215 5.0 9.0 0.00 0.00 0.00 79 1011.7
20260502061015 59 193 4.0 8.0 0.00 0.00 0.00 80 1011.6
20260502060512 60 182 1.0 7.0 0.00 0.00 0.00 79 1011.6
20260502060027 60 178 3.0 8.0 0.00 0.00 0.00 78 1011.7
20260502055512 60 195 4.0 8.0 0.00 0.00 0.00 78 1011.7
20260502055014 60 217 5.0 8.0 0.00 0.00 0.00 78 1011.8
20260502054541 60 214 4.0 9.0 0.00 0.00 0.00 78 1011.7
20260502054011 60 205 4.0 9.0 0.00 0.00 0.00 79 1011.6
20260502053514 60 223 5.0 9.0 0.00 0.00 0.00 78 1011.6
20260502053032 60 232 5.0 8.0 0.00 0.00 0.00 79 1011.5